Terminal Aerodrome Forecast
Issued by NWS Dodge City, KS

Home | Current Version | Previous Version | Text Only | Print | Product List | Glossary On
Versions: 1 2 3 4 5 6 7 8 9 10 11 12 13 14 15 16 17 18 19 20 21 22 23 24
000
FTUS43 KDDC 062330
TAFDDC
TAF
KDDC 062330Z 0700/0724 24010KT P6SM SKC
     FM070900 33010KT P6SM SCT250
     FM071500 33013G18KT P6SM SKC
     FM071700 34021G28KT P6SM SKC=

USA.gov is the U.S. government's official web portal to all federal, state and local government web resources and services.